Quitman, TX

9:22 AM CST on February 09, 2016 (GMT -0600)
Mineola

Weather History for KJDD - April, 2013

Change the Weather History Date:

Monday, April 22, 2013

  Actual Average (KTYR) Record (KTYR)
Temperature  
Mean Temperature 63 °F 66 °F  
Max Temperature 78 °F 76 °F 94 °F (2011)
Min Temperature 48 °F 56 °F 37 °F (1931)
Degree Days  
Heating Degree Days 2 2  
Month to date heating degree days 88  
Since 1 July heating degree days 2253  
Cooling Degree Days 0 3  
Month to date cooling degree days 47  
Year to date cooling degree days 80  
Growing Degree Days 13 (Base 50)    
Moisture  
Dew Point 51 °F    
Average Humidity 66    
Maximum Humidity 100    
Minimum Humidity 39    
Precipitation  
Precipitation 0.00 in 0.12 in 2.59 in (1907)
Month to date precipitation 2.16  
Year to date precipitation 13.15  
Snow  
Snow 0.00 in - - ()
Month to date snowfall  
Since 1 July snowfall  
Snow Depth -    
Sea Level Pressure  
Sea Level Pressure 30.04 in    
Wind  
Wind Speed 3 mph (SSE)    
Max Wind Speed 12 mph    
Max Gust Speed 17 mph    
Visibility 10 miles    
Events      
T = Trace of Precipitation, MM = Missing Value Source: NWS Daily Summary

Daily Weather History Graph

Daily Weather History Graph

Search for Another Location

Airport or City:

Trip Planner

Search our weather history database for the weather conditions in past years. The results will help you decide how hot, cold, wet, or windy it might be!

Date:

Astronomy

Apr. 22, 2013 Rise Set
Actual Time 6:44 AM CDT 7:57 PM CDT
Civil Twilight 6:18 AM CDT 8:23 PM CDT
Nautical Twilight 5:47 AM CDT 8:53 PM CDT
Astronomical Twilight 5:16 AM CDT 9:25 PM CDT
Moon 4:56 PM CDT (4/22) 4:28 AM CDT (4/22)
Length of Visible Light 14h 04m
Length of Day
13h 13m
Waxing Gibbous, 88% of the Moon is Illuminated
Apr 22
Waxing Gibbous
Apr 25
Full
May 2
Last Quarter
May 9
New
May 17
First Quarter

Hourly Weather History & Observations

Time (CDT) Temp. Dew Point Humidity Pressure Visibility Wind Dir Wind Speed Gust Speed Precip Events Conditions
12:15 AM 51.8 °F 48.2 °F 88% 30.16 in 10.0 mi Calm Calm - N/A   Clear
12:35 AM 51.8 °F 48.2 °F 88% 30.16 in 10.0 mi Calm Calm - N/A   Clear
12:55 AM 50.0 °F 48.2 °F 94% 30.15 in 10.0 mi Calm Calm - N/A   Clear
1:15 AM 50.0 °F 48.2 °F 94% 30.15 in 10.0 mi Calm Calm - N/A   Clear
1:35 AM 50.0 °F 48.2 °F 94% 30.15 in 10.0 mi Calm Calm - N/A   Clear
1:55 AM 48.2 °F 46.4 °F 93% 30.14 in 10.0 mi Calm Calm - N/A   Clear
2:15 AM 48.2 °F 46.4 °F 93% 30.13 in 10.0 mi Calm Calm - N/A   Clear
2:35 AM 48.2 °F 48.2 °F 100% 30.12 in 10.0 mi Calm Calm - N/A   Clear
2:55 AM 48.2 °F 46.4 °F 93% 30.11 in 10.0 mi Calm Calm - N/A   Clear
3:35 AM 50.0 °F 46.4 °F 87% 30.11 in 10.0 mi Calm Calm - N/A   Clear
3:55 AM 50.0 °F 46.4 °F 87% 30.11 in 10.0 mi Calm Calm - N/A   Clear
4:15 AM 48.2 °F 46.4 °F 93% 30.11 in 10.0 mi Calm Calm - N/A   Clear
4:35 AM 48.2 °F 44.6 °F 87% 30.11 in 10.0 mi Calm Calm - N/A   Clear
4:55 AM 48.2 °F 46.4 °F 93% 30.11 in 10.0 mi Calm Calm - N/A   Clear
5:15 AM 48.2 °F 46.4 °F 93% 30.11 in 10.0 mi Calm Calm - N/A   Clear
5:35 AM 48.2 °F 46.4 °F 93% 30.10 in 10.0 mi SE 3.5 mph - N/A   Clear
6:15 AM 48.2 °F 44.6 °F 87% 30.11 in 10.0 mi Calm Calm - N/A   Clear
6:35 AM 48.2 °F 46.4 °F 93% 30.11 in 10.0 mi Calm Calm - N/A   Clear
6:55 AM 48.2 °F 46.4 °F 93% 30.12 in 10.0 mi Calm Calm - N/A   Clear
7:15 AM 48.2 °F 46.4 °F 93% 30.12 in 10.0 mi Calm Calm - N/A   Clear
7:35 AM 48.2 °F 46.4 °F 93% 30.13 in 10.0 mi Calm Calm - N/A   Clear
7:55 AM 51.8 °F 46.4 °F 82% 30.14 in 10.0 mi Calm Calm - N/A   Clear
8:15 AM 53.6 °F 46.4 °F 77% 30.14 in 10.0 mi SE 3.5 mph - N/A   Clear
8:35 AM 57.2 °F 48.2 °F 72% 30.14 in 10.0 mi ESE 3.5 mph - N/A   Clear
8:55 AM 59.0 °F 50.0 °F 72% 30.14 in 10.0 mi Calm Calm - N/A   Clear
9:15 AM 62.6 °F 51.8 °F 68% 30.14 in 10.0 mi SE 4.6 mph - N/A   Clear
9:35 AM 64.4 °F 53.6 °F 68% 30.14 in 10.0 mi SSE 4.6 mph - N/A   Clear
9:55 AM 64.4 °F 53.6 °F 68% 30.14 in 10.0 mi SSE 5.8 mph - N/A   Clear
10:15 AM 66.2 °F 53.6 °F 64% 30.14 in 10.0 mi SE 5.8 mph - N/A   Clear
10:35 AM 66.2 °F 51.8 °F 60% 30.13 in 10.0 mi SSE 6.9 mph - N/A   Clear
10:55 AM 68.0 °F 51.8 °F 56% 30.13 in 10.0 mi SSW 6.9 mph - N/A   Clear
11:15 AM 69.8 °F 50.0 °F 49% 30.12 in 10.0 mi SSE 10.4 mph - N/A   Clear
11:35 AM 69.8 °F 51.8 °F 53% 30.11 in 10.0 mi South 10.4 mph - N/A   Clear
11:55 AM 71.6 °F 50.0 °F 46% 30.10 in 10.0 mi SSE 9.2 mph 17.3 mph N/A   Clear
12:15 PM 71.6 °F 50.0 °F 46% 30.09 in 10.0 mi SE 8.1 mph - N/A   Clear
12:35 PM 71.6 °F 50.0 °F 46% 30.08 in 10.0 mi SSE 5.8 mph 17.3 mph N/A   Clear
12:55 PM 73.4 °F 51.8 °F 47% 30.07 in 10.0 mi SSE 9.2 mph - N/A   Clear
1:15 PM 73.4 °F 51.8 °F 47% 30.06 in 10.0 mi SSE 8.1 mph - N/A   Clear
1:35 PM 73.4 °F 50.0 °F 44% 30.05 in 9.0 mi South 6.9 mph - N/A   Clear
1:55 PM 73.4 °F 50.0 °F 44% 30.03 in 10.0 mi SSE 6.9 mph - N/A   Clear
2:15 PM 75.2 °F 51.8 °F 44% 30.02 in 10.0 mi SSE 11.5 mph - N/A   Clear
2:35 PM 75.2 °F 50.0 °F 41% 30.01 in 10.0 mi SSE 5.8 mph 16.1 mph N/A   Clear
2:55 PM 75.2 °F 50.0 °F 41% 30.00 in 10.0 mi South 6.9 mph - N/A   Clear
3:15 PM 75.2 °F 50.0 °F 41% 29.99 in 10.0 mi SSE 9.2 mph - N/A   Clear
3:35 PM 77.0 °F 51.8 °F 41% 29.98 in 10.0 mi South 11.5 mph - N/A   Clear
3:55 PM 77.0 °F 51.8 °F 41% 29.96 in 10.0 mi SSE 6.9 mph 17.3 mph N/A   Clear
4:15 PM 77.0 °F 51.8 °F 41% 29.95 in 10.0 mi SSE 8.1 mph - N/A   Clear
4:35 PM 77.0 °F 51.8 °F 41% 29.94 in 10.0 mi South 10.4 mph - N/A   Clear
4:55 PM 77.0 °F 51.8 °F 41% 29.93 in 10.0 mi SSE 6.9 mph - N/A   Clear
5:15 PM 78.8 °F 51.8 °F 39% 29.93 in 10.0 mi South 8.1 mph - N/A   Clear
5:35 PM 78.8 °F 51.8 °F 39% 29.92 in 10.0 mi SSE 8.1 mph - N/A   Clear
5:55 PM 77.0 °F 51.8 °F 41% 29.92 in 10.0 mi SSE 9.2 mph - N/A   Clear
6:15 PM 77.0 °F 51.8 °F 41% 29.92 in 10.0 mi South 9.2 mph - N/A   Clear
6:35 PM 77.0 °F 53.6 °F 44% 29.92 in 10.0 mi SSE 5.8 mph - N/A   Clear
6:55 PM 75.2 °F 53.6 °F 47% 29.91 in 10.0 mi SSE 4.6 mph - N/A   Clear
7:15 PM 75.2 °F 55.4 °F 50% 29.91 in 10.0 mi SE 3.5 mph - N/A   Clear
7:35 PM 73.4 °F 55.4 °F 53% 29.91 in 10.0 mi SSE 3.5 mph - N/A   Clear
7:55 PM 73.4 °F 55.4 °F 53% 29.91 in 10.0 mi SE 3.5 mph - N/A   Clear
8:15 PM 71.6 °F 55.4 °F 57% 29.91 in 10.0 mi Calm Calm - N/A   Clear
8:35 PM 69.8 °F 55.4 °F 60% 29.91 in 10.0 mi Calm Calm - N/A   Clear
8:55 PM 68.0 °F 55.4 °F 64% 29.92 in 10.0 mi Calm Calm - N/A   Clear
9:15 PM 68.0 °F 55.4 °F 64% 29.93 in 10.0 mi SE 3.5 mph - N/A   Clear
9:35 PM 68.0 °F 55.4 °F 64% 29.93 in 10.0 mi SSE 3.5 mph - N/A   Clear
9:55 PM 66.2 °F 55.4 °F 68% 29.93 in 10.0 mi SSE 3.5 mph - N/A   Clear
10:15 PM 66.2 °F 55.4 °F 68% 29.94 in 10.0 mi Calm Calm - N/A   Clear
10:35 PM 66.2 °F 55.4 °F 68% 29.93 in 10.0 mi SE 3.5 mph - N/A   Clear
10:55 PM 66.2 °F 53.6 °F 64% 29.93 in 10.0 mi SE 5.8 mph - N/A   Clear
11:15 PM 66.2 °F 53.6 °F 64% 29.93 in 10.0 mi SE 4.6 mph - N/A   Clear
11:35 PM 66.2 °F 53.6 °F 64% 29.93 in 10.0 mi SE 5.8 mph - N/A   Clear
11:55 PM 66.2 °F 53.6 °F 64% 29.93 in 10.0 mi SE 5.8 mph - N/A   Clear